Weather History for KLHW - July, 2012

Change the Weather History Date:

Tuesday, July 10, 2012

  Actual Average Record
Temperature  
Mean Temperature 85 °F -  
Max Temperature 95 °F 94 °F 102 °F (1980)
Min Temperature 75 °F 71 °F 62 °F (2006)
Cooling Degree Days 20    
Growing Degree Days 35 (Base 50)    
Moisture  
Dew Point 71 °F    
Average Humidity 66    
Maximum Humidity 88    
Minimum Humidity 40    
Precipitation  
Precipitation 0.00 in - - ()
Sea Level Pressure  
Sea Level Pressure 29.97 in    
Wind  
Wind Speed 6 mph (SSW)    
Max Wind Speed 12 mph    
Max Gust Speed 17 mph    
Visibility 10 miles    
Events      
Averages and records for this station are not official NWS values.
T = Trace of Precipitation, MM = Missing Value Source: NWS Daily Summary

Daily Weather History Graph

Daily Weather History Graph

Search for Another Location

Airport or City:

Trip Planner

Search our weather history database for the weather conditions in past years. The results will help you decide how hot, cold, wet, or windy it might be!

Date:

Astronomy

Jul. 10, 2012 Rise Set
Actual Time 6:28 AM EDT 8:34 PM EDT
Civil Twilight 6:00 AM EDT 9:02 PM EDT
Nautical Twilight 5:26 AM EDT 9:36 PM EDT
Astronomical Twilight 4:50 AM EDT 10:12 PM EDT
Moon 12:18 AM EDT (7/10) 1:22 PM EDT (7/10)
Length of Visible Light 15h 01m
Length of Day
14h 06m
Waning Gibbous, 54% of the Moon is Illuminated
Jul 10
Waning Gibbous
Jul 10
Last Quarter
Jul 19
New
Jul 26
First Quarter
Aug 1
Full

Hourly Weather History & Observations

Time (EDT) Temp. Heat Index Dew Point Humidity Pressure Visibility Wind Dir Wind Speed Gust Speed Precip Events Conditions
12:55 AM 79.0 °F - 75.2 °F 88% 29.98 in 10.0 mi South 3.5 mph - N/A   Clear
1:55 AM 78.6 °F - 72.5 °F 81% 29.97 in 10.0 mi SW 5.8 mph - N/A   Clear
3:55 AM 77.4 °F - 72.0 °F 83% 29.97 in 10.0 mi SW 4.6 mph - N/A   Clear
4:55 AM 76.5 °F - 71.8 °F 85% 29.96 in 10.0 mi WSW 5.8 mph - N/A   Clear
5:55 AM 75.7 °F - 71.8 °F 87% 29.97 in 10.0 mi SSW 5.8 mph - N/A   Clear
6:55 AM 75.6 °F - 71.6 °F 87% 29.98 in 10.0 mi Calm Calm - N/A   Clear
7:55 AM 77.5 °F - 71.6 °F 82% 30.00 in 10.0 mi SW 4.6 mph - N/A   Clear
8:55 AM 80.6 °F 84.6 °F 71.8 °F 74% 30.00 in 10.0 mi SSW 5.8 mph - N/A   Clear
9:55 AM 84.2 °F 89.9 °F 72.0 °F 67% 30.01 in 10.0 mi Variable 4.6 mph - N/A   Clear
10:55 AM 87.4 °F 94.0 °F 72.1 °F 60% 30.00 in 10.0 mi SW 5.8 mph - N/A   Clear
11:55 AM 89.8 °F 97.5 °F 72.5 °F 57% 30.00 in 10.0 mi Variable 4.6 mph - N/A   Clear
12:55 PM 91.4 °F 98.9 °F 72.1 °F 53% 30.00 in 10.0 mi SW 10.4 mph - N/A   Partly Cloudy
1:55 PM 93.6 °F 99.5 °F 70.0 °F 46% 29.99 in 10.0 mi SW 9.2 mph - N/A   Mostly Cloudy
2:55 PM 94.3 °F 99.8 °F 69.3 °F 44% 29.95 in 10.0 mi South 5.8 mph - N/A   Scattered Clouds
3:55 PM 95.2 °F 99.9 °F 67.8 °F 41% 29.93 in 10.0 mi SSW 9.2 mph - N/A   Partly Cloudy
4:55 PM 94.6 °F 98.9 °F 67.3 °F 41% 29.91 in 10.0 mi South 9.2 mph 17.3 mph N/A   Partly Cloudy
5:55 PM 95.0 °F 99.0 °F 67.3 °F 40% 29.92 in 10.0 mi SSW 9.2 mph - N/A   Scattered Clouds
6:55 PM 93.7 °F 97.2 °F 66.6 °F 41% 29.93 in 10.0 mi SSW 8.1 mph - N/A   Partly Cloudy
7:55 PM 88.7 °F 99.3 °F 75.7 °F 65% 29.95 in 10.0 mi SSE 11.5 mph - N/A   Clear
8:55 PM 84.4 °F 92.4 °F 75.0 °F 73% 29.96 in 10.0 mi SSE 5.8 mph - N/A   Clear
9:55 PM 82.6 °F 89.4 °F 74.8 °F 77% 29.99 in 8.0 mi South 5.8 mph - N/A   Clear
10:55 PM 81.9 °F 85.8 °F 70.3 °F 68% 30.00 in 10.0 mi South 4.6 mph - N/A   Clear
11:55 PM 79.7 °F - 68.9 °F 69% 30.03 in 10.0 mi SW 6.9 mph - N/A   Scattered Clouds